Volver al catálogo

COSMOS 1375 DEB

ActivoLEO
NORAD 16380·DEBRIS·🇷🇺 Russia

Lanzado Jun 6, 1982 desde Plesetsk Cosmodrome

Loading…

Próximos Pases (próximas 24 horas)

TLE

ActualizadoSource: Space-Track

Época: Sep 14, 2026, 17:56 UTC

1 16380U 82055U   26257.74752013 -.00000059  00000-0  24216-4 0  9993
2 16380  65.8365 157.1742 0041514  65.6634 325.0814 13.64016369 36691

Sigue COSMOS 1375 DEB en tiempo real con AllMySat

Download on the App Store